Weather in Laoag

Philippines     18°12′29″N   120°35′28″E
temp.,
°C
wind,
m/s
gust,
m/s
humid.,
%
clouds,
%
prec.,
mm/h
press.,
hPa
HPBL,
m
9 may, sun
sun923:00+29ne227539 0.0 1010281
02:00+28nne117670 0.0 1009301
05:00+28ne22775 0.0 1009361
08:00+28e01744 0.0 1010276
11:00+29nw55757 0.0 1010416
14:00+29nnw66755 0.0 1008639
17:00+29n557451 0.3 1008655
20:00+28sse6776100 1.6 1010335
10 may, mon
mon1023:00+28nne337458 0.0 1010324
02:00+28nne44807 0.0 1008406
05:00+27ese227910 0.0 1008205
08:00+28s227499 0.0 1009274
11:00+29wsw557629 0.0 1009466
14:00+29nw54745 0.0 1008618
17:00+29nw54774 0.0 1008586
20:00+29nnw33800 1.1 1009406
11 may, tue
tue1123:00+28ne21805 0.0 1009290
02:00+28e118117 0.0 1008199
05:00+28s11815 0.0 1008261
08:00+29s237729 0.0 1010511
11:00+29w43785 0.0 1010535
14:00+29wnw55765 0.0 1008503
17:00+29nnw43730 0.0 1008582
20:00+29n33755 0.0 1008363
12 may, wed
wed1223:00+29nne33778 0.0 1008277
02:00+28ne22785 0.0 1007264
05:00+28ese11775 0.0 1008209
08:00+29ssw12745 0.0 1009318
11:00+29w44767 0.0 1009511
14:00+29nw54755 0.1 1007600
17:00+29nnw44751 0.1 1007540
20:00+29n44765 0.2 1008471
13 may, thu
thu1323:00+28ne34780 0.0 1009357
02:00+28nne33780 0.0 1007302
05:00+28e11770 0.0 1008227
08:00+29s22740 0.0 1009296
11:00+29w43753 0.0 1008461
14:00+29nw55750 0.0 1007503
17:00+29nnw44735 0.0 1007463
20:00+29n33770 0.3 1008438